Corpus Christi, TX

7:15 PM CST on February 20, 2017 (GMT -0600)
North Padre Island

Weather History for KOPM - January, 2014

Change the Weather History Date:

Wednesday, January 1, 2014

  Actual Average (KHRL) Record (KHRL)
Temperature  
Mean Temperature 64 °F -  
Max Temperature 68 °F 70 °F 89 °F (1986)
Min Temperature 59 °F 47 °F 28 °F (1894)
Degree Days  
Heating Degree Days 2    
Growing Degree Days 14 (Base 50)    
Moisture  
Dew Point 60 °F    
Average Humidity 93    
Maximum Humidity 100    
Minimum Humidity 77    
Precipitation  
Precipitation 0.02 in - - ()
Sea Level Pressure  
Sea Level Pressure 30.06 in    
Wind  
Wind Speed 9 mph (NNW)    
Max Wind Speed 14 mph    
Max Gust Speed 18 mph    
Visibility 5 miles    
Events      
Averages and records for this station are not official NWS values.
T = Trace of Precipitation, MM = Missing Value Source: NWS Daily Summary

Daily Weather History Graph

Daily Weather History Graph

Search for Another Location

Airport or City:

Trip Planner

Search our weather history database for the weather conditions in past years. The results will help you decide how hot, cold, wet, or windy it might be!

Date:

Astronomy

Jan. 01, 2014 Rise Set
Actual Time 7:16 AM CST 5:46 PM CST
Civil Twilight 6:51 AM CST 6:11 PM CST
Nautical Twilight 6:22 AM CST 6:40 PM CST
Astronomical Twilight 5:54 AM CST 7:08 PM CST
Moon 7:14 AM CST (1/1) 6:25 PM CST (1/1)
Length of Visible Light 11h 20m
Length of Day
10h 29m
New Moon, 0% of the Moon is Illuminated
Jan 1
New Moon
Jan 7
First Quarter
Jan 15
Full
Jan 23
Last Quarter
Jan 30
New

Hourly Weather History & Observations

Time (CST) Temp. Dew Point Humidity Pressure Visibility Wind Dir Wind Speed Gust Speed Precip Events Conditions
12:15 AM 59.0 °F 53.6 °F 82% 30.24 in 10.0 mi NNE 6.9 mph - N/A   Overcast
12:35 AM 60.8 °F 53.6 °F 77% 30.23 in 10.0 mi NE 6.9 mph - N/A   Overcast
12:55 AM - - N/A% - - North - - N/A   Unknown
1:15 AM - - N/A% - - North - - N/A   Unknown
8:35 AM 59.0 °F 57.2 °F 94% 30.15 in - NNW 9.2 mph - N/A   Unknown
8:55 AM 59.0 °F 57.2 °F 94% 30.15 in 6.0 mi NNW 11.5 mph - N/A   Overcast
9:15 AM 59.0 °F 57.2 °F 94% 30.16 in 6.0 mi NNW 10.4 mph - N/A   Overcast
9:35 AM 60.8 °F 59.0 °F 94% 30.16 in - NNW 11.5 mph - N/A   Overcast
9:55 AM 59.0 °F 57.2 °F 94% 30.16 in 4.0 mi NNW 8.1 mph - N/A   Overcast
10:15 AM 60.8 °F 59.0 °F 94% 30.16 in 4.0 mi NNW 9.2 mph - N/A   Overcast
10:35 AM 60.8 °F 59.0 °F 94% 30.16 in 4.0 mi NNW 9.2 mph - N/A   Overcast
10:55 AM 60.8 °F 59.0 °F 94% 30.14 in 3.0 mi NNW 8.1 mph - N/A   Mostly Cloudy
11:15 AM 60.8 °F 59.0 °F 94% 30.14 in 5.0 mi NNW 10.4 mph - N/A   Mostly Cloudy
11:35 AM 60.8 °F 60.8 °F 100% 30.13 in 4.0 mi NNW 9.2 mph - N/A   Mostly Cloudy
11:55 AM 60.8 °F 60.8 °F 100% 30.12 in 3.0 mi NNW 10.4 mph - N/A   Overcast
12:15 PM 60.8 °F 60.8 °F 100% 30.11 in 2.5 mi NNW 10.4 mph - N/A   Mostly Cloudy
12:35 PM 60.8 °F 59.0 °F 94% 30.10 in 2.5 mi NW 9.2 mph 17.3 mph N/A   Mostly Cloudy
12:55 PM 60.8 °F 60.8 °F 100% 30.07 in 1.5 mi Variable 5.8 mph - 0.01 in   Overcast
1:15 PM 62.6 °F 62.6 °F 100% 30.06 in 4.0 mi NNW 5.8 mph 11.5 mph N/A   Mostly Cloudy
1:35 PM 66.2 °F 64.4 °F 94% 30.05 in 9.0 mi ENE 9.2 mph - N/A   Mostly Cloudy
1:55 PM - - N/A% - - North - - N/A   Unknown
2:15 PM 68.0 °F 62.6 °F 83% 30.03 in 10.0 mi East 10.4 mph - N/A   Unknown
2:35 PM 68.0 °F 62.6 °F 83% 30.03 in 10.0 mi East 8.1 mph - N/A   Overcast
2:55 PM 66.2 °F 62.6 °F 88% 30.02 in 7.0 mi NW 5.8 mph - 0.01 in   Overcast
3:15 PM 64.4 °F 60.8 °F 88% 30.01 in 6.0 mi WNW 10.4 mph - N/A   Overcast
3:35 PM 62.6 °F 59.0 °F 88% 30.01 in 5.0 mi NW 10.4 mph - N/A   Overcast
3:55 PM 60.8 °F 59.0 °F 94% 30.01 in 6.0 mi WNW 11.5 mph - N/A   Overcast
4:15 PM 60.8 °F 59.0 °F 94% 30.00 in 5.0 mi NW 5.8 mph 13.8 mph N/A   Overcast
4:35 PM 60.8 °F 57.2 °F 88% 30.01 in 5.0 mi NW 13.8 mph - N/A   Overcast
4:55 PM 60.8 °F 59.0 °F 94% 30.01 in 4.0 mi NNW 11.5 mph - N/A   Overcast
5:15 PM 60.8 °F 59.0 °F 94% 30.01 in 4.0 mi NW 12.7 mph - N/A   Overcast
5:35 PM 60.8 °F 59.0 °F 94% 30.00 in 3.0 mi NNW 11.5 mph - N/A   Overcast
5:55 PM 60.8 °F 59.0 °F 94% 30.00 in 3.0 mi NNW 11.5 mph 18.4 mph N/A   Overcast
6:15 PM 60.8 °F 59.0 °F 94% 30.00 in 4.0 mi NW 12.7 mph - N/A   Overcast
6:35 PM 60.8 °F 59.0 °F 94% 30.00 in 4.0 mi NNW 6.9 mph - N/A   Overcast
6:55 PM 60.8 °F 59.0 °F 94% 30.00 in 5.0 mi NNW 9.2 mph - N/A   Overcast
7:15 PM 60.8 °F 59.0 °F 94% 30.00 in 5.0 mi NNW 8.1 mph - N/A   Overcast
7:35 PM 62.6 °F 60.8 °F 94% 30.00 in 4.0 mi NNW 6.9 mph - N/A   Overcast
7:55 PM 62.6 °F 60.8 °F 94% 30.00 in 4.0 mi NNW 6.9 mph - N/A   Overcast
8:15 PM 62.6 °F 60.8 °F 94% 30.01 in 4.0 mi NNW 8.1 mph - N/A   Overcast
8:35 PM 62.6 °F 60.8 °F 94% 30.01 in 4.0 mi NNW 4.6 mph - N/A   Overcast
8:55 PM 62.6 °F 60.8 °F 94% 30.01 in - NNW 4.6 mph - N/A   Overcast
9:15 PM 62.6 °F 60.8 °F 94% 30.02 in 5.0 mi NNW 6.9 mph - N/A   Overcast
9:35 PM 62.6 °F 60.8 °F 94% 30.02 in 5.0 mi NNW 4.6 mph - N/A   Overcast
9:55 PM 64.4 °F 62.6 °F 94% 30.02 in 5.0 mi North 4.6 mph - N/A   Overcast
10:15 PM 64.4 °F 62.6 °F 94% 30.02 in 5.0 mi NNW 6.9 mph - N/A   Overcast
10:35 PM 64.4 °F 62.6 °F 94% 30.02 in 5.0 mi NNW 5.8 mph - N/A   Overcast
10:55 PM 64.4 °F 62.6 °F 94% 30.02 in 6.0 mi NNW 5.8 mph - N/A   Overcast
11:15 PM 64.4 °F 62.6 °F 94% 30.03 in 6.0 mi NNW 11.5 mph - N/A   Overcast
11:35 PM 64.4 °F 62.6 °F 94% 30.03 in 7.0 mi NNW 10.4 mph - N/A   Overcast
11:55 PM 62.6 °F 62.6 °F 100% 30.03 in 7.0 mi NNW 9.2 mph - N/A   Overcast